NOAA 16 DEB, 42367

Orbit data source: Space-Track

NOAA 16 DEB, 42367 is space debris in SSO originally from a launch on Thu, 21 Sep 2000 UTC launched from the Air Force Western Test Range (AFWTR). Debris objects in space refer to the collection of defunct objects orbiting the Earth. Examples of debris include non-operational satellites, rocket bodies, and fragments generated from explosions, collisions, or faulty payload assembly.

Loading next visibility...
Identifier
42367, 2000-055RK
Orbit
SSO
Country
Flag of USUS
Related business
Manufacturer
Unknown
Mission
Spacecraft
Bus & Motor
Unknown
Mass
Unknown
Launch date (UTC)
2000-09-21 (25 years ago)
Launch vehicle
Unknown
Launch site
Air Force Western Test Range (AFWTR)
Object type
Payload
Rocket body
Debris
Shape & HBR
Unknown shape, 0.1 m
Radar Cross Section
Small (<0.1 m²)

Expand to show TLE details & history
Last TLE update: 16 hours ago

TLE from 16 hours ago
0 NOAA 16 DEB
1 42367U 00055RK  25347.12468644  .00026456  00000-0  71896-2 0  9994
2 42367  98.8899  99.7606 0017910 281.0920  78.8257 14.47365694500474
Epoch: 2025-12-13T02:59Z
TLE epoch observation values (Epoch: 2025-12-13T02:59:32.908Z)
Latitude
-0.00001°
Longitude
-27.18297°
Altitude
734.764 km
Speed
7.489 km/s
True Right ascension
06h 39m 02s
True Declination
0° 00' 00"
Sunlit
Object was in full shadow at epoch
Visualization orbit readout
Latitude
Unknown
Longitude
Unknown
Altitude
Unknown
Speed
Unknown
Apparent Right ascension
Unknown
Apparent Declination
Unknown
Sunlit
N/A
Visualization observer readout
Local Sidereal Time
17:01:31
Azimuth
Unknown
Elevation
Unknown
Doppler factor
Unknown
Orbital elements
Apogee altitude
744.13 km
Perigee altitude
718.663 km
Semi-major axis
7,109.533 km
Eccentricity
0.00179
Inclination
98.8899°
RAAN
99.7606°
Arg. of periapsis
281.092°
True anomaly
79.02713°
Mean anomaly
78.8257°
Eccentric anomaly
78.92641°
Mean motion
3.62061 °/min
Orbital period
99.43 mins
BSTAR
0.0071896
Loading maneuver chart data...
Computing Atmospheric mass density...
Loading historical data...
Loading historical data...
Loading historical data...
Loading historical data...
Loading historical data...
Loading historical data...
Loading historical data...

Documentation

Showing up to 5 results
|